Weather History for Louisa, VA

Change the Weather History Date:

Wednesday, November 7, 2012

  Actual Average (KCHO) Record (KCHO)
Temperature  
Mean Temperature 42 °F 50 °F  
Max Temperature 46 °F 61 °F 82 °F (1994)
Min Temperature 37 °F 39 °F 23 °F (1930)
Degree Days  
Heating Degree Days 24 15  
Month to date heating degree days 101  
Since 1 July heating degree days 450  
Cooling Degree Days 0 0  
Month to date cooling degree days 0  
Year to date cooling degree days 1034  
Moisture  
Dew Point 28 °F    
Average Humidity 59    
Maximum Humidity 70    
Minimum Humidity 42    
Precipitation  
Precipitation 0.00 in 0.15 in 1.60 in (1963)
Month to date precipitation 0.96  
Year to date precipitation 36.69  
Sea Level Pressure  
Sea Level Pressure 29.90 in    
Wind  
Wind Speed 7 mph (North)    
Max Wind Speed 10 mph    
Max Gust Speed 16 mph    
Visibility 10 miles    
Events      
T = Trace of Precipitation, MM = Missing Value Source: NWS Daily Summary

Daily Weather History Graph

Daily Weather History Graph

Search for Another Location

Airport:

Trip Planner

Search our weather history database for the weather conditions in past years. The results will help you decide how hot, cold, wet, or windy it might be!

Date:

Astronomy

Nov. 07, 2012 Rise Set
Actual Time 6:44 AM EST 5:06 PM EST
Civil Twilight 6:16 AM EST 5:33 PM EST
Nautical Twilight 5:45 AM EST 6:05 PM EST
Astronomical Twilight 5:14 AM EST 6:36 PM EST
Moon No Moon Rise 1:08 PM EST (11/7)
Length of Visible Light 11h 17m
Length of Day
10h 21m
Last Quarter, 43% of the Moon is Illuminated
Nov 7
Last Quarter
Nov 13
New
Nov 20
First Quarter
Nov 28
Full
Dec 6
Last Quarter

Hourly Weather History & Observations

Time (EST) Temp. Windchill Dew Point Humidity Pressure Visibility Wind Dir Wind Speed Gust Speed Precip Events Conditions
12:15 AM 39.2 °F 35.9 °F 28.4 °F 65% 29.97 in 10.0 mi North 4.6 mph - N/A   Mostly Cloudy
12:35 AM 39.2 °F 35.9 °F 28.4 °F 65% 29.96 in 10.0 mi North 4.6 mph - N/A   Scattered Clouds
12:55 AM 39.2 °F 35.0 °F 28.4 °F 65% 29.95 in 10.0 mi North 5.8 mph - N/A   Scattered Clouds
1:15 AM 39.2 °F 34.2 °F 28.4 °F 65% 29.94 in 10.0 mi North 6.9 mph - N/A   Scattered Clouds
1:35 AM 39.2 °F 35.0 °F 30.2 °F 70% 29.93 in 10.0 mi North 5.8 mph - N/A   Scattered Clouds
1:55 AM 39.2 °F 34.2 °F 30.2 °F 70% 29.93 in 10.0 mi NNE 6.9 mph - N/A   Mostly Cloudy
2:15 AM 39.2 °F 34.2 °F 30.2 °F 70% 29.92 in 10.0 mi North 6.9 mph - N/A   Overcast
2:35 AM 39.2 °F 35.9 °F 30.2 °F 70% 29.91 in 10.0 mi North 4.6 mph - N/A   Overcast
2:55 AM 39.2 °F 33.0 °F 30.2 °F 70% 29.90 in 10.0 mi North 9.2 mph - N/A   Mostly Cloudy
3:15 AM 39.2 °F 33.0 °F 30.2 °F 70% 29.90 in 10.0 mi North 9.2 mph - N/A   Overcast
3:55 AM 39.2 °F 33.6 °F 28.4 °F 65% 29.90 in 10.0 mi North 8.1 mph - N/A   Mostly Cloudy
4:15 AM 39.2 °F 33.0 °F 28.4 °F 65% 29.91 in 10.0 mi North 9.2 mph - N/A   Mostly Cloudy
4:35 AM 39.2 °F 33.6 °F 28.4 °F 65% 29.91 in 10.0 mi North 8.1 mph - N/A   Overcast
4:55 AM 37.4 °F 32.8 °F 28.4 °F 70% 29.91 in 10.0 mi North 5.8 mph - N/A   Overcast
5:15 AM 37.4 °F 32.8 °F 28.4 °F 70% 29.91 in 10.0 mi North 5.8 mph - N/A   Overcast
5:35 AM 37.4 °F 32.8 °F 28.4 °F 70% 29.91 in 10.0 mi North 5.8 mph - N/A   Overcast
5:55 AM 37.4 °F 31.4 °F 28.4 °F 70% 29.90 in 10.0 mi North 8.1 mph - N/A   Overcast
6:15 AM 37.4 °F 32.1 °F 28.4 °F 70% 29.90 in 10.0 mi North 6.9 mph - N/A   Mostly Cloudy
6:35 AM 37.4 °F 31.4 °F 28.4 °F 70% 29.91 in 10.0 mi North 8.1 mph - N/A   Overcast
6:55 AM 37.4 °F 33.8 °F 28.4 °F 70% 29.92 in 10.0 mi North 4.6 mph - N/A   Overcast
7:15 AM 37.4 °F 33.8 °F 28.4 °F 70% 29.93 in 10.0 mi NNE 4.6 mph - N/A   Overcast
7:35 AM 37.4 °F 33.8 °F 28.4 °F 70% 29.92 in 10.0 mi North 4.6 mph - N/A   Overcast
7:55 AM 37.4 °F 32.8 °F 28.4 °F 70% 29.92 in 10.0 mi North 5.8 mph - N/A   Overcast
8:15 AM 39.2 °F 33.6 °F 28.4 °F 65% 29.92 in 10.0 mi NNW 8.1 mph - N/A   Overcast
8:35 AM 39.2 °F 32.5 °F 28.4 °F 65% 29.92 in 10.0 mi North 10.4 mph - N/A   Overcast
8:55 AM 39.2 °F 33.6 °F 28.4 °F 65% 29.91 in 10.0 mi North 8.1 mph - N/A   Overcast
9:15 AM 41.0 °F 36.4 °F 26.6 °F 57% 29.90 in 10.0 mi North 6.9 mph - N/A   Overcast
9:35 AM 41.0 °F 35.2 °F 26.6 °F 57% 29.90 in 10.0 mi North 9.2 mph - N/A   Overcast
9:55 AM 42.8 °F 38.6 °F 26.6 °F 53% 29.90 in 10.0 mi North 6.9 mph - N/A   Overcast
10:15 AM 42.8 °F 39.3 °F 26.6 °F 53% 29.89 in 10.0 mi North 5.8 mph - N/A   Mostly Cloudy
10:35 AM 42.8 °F 37.5 °F 26.6 °F 53% 29.89 in 10.0 mi North 9.2 mph - N/A   Mostly Cloudy
10:55 AM 42.8 °F 40.1 °F 26.6 °F 53% 29.89 in 10.0 mi NNE 4.6 mph - N/A   Overcast
11:15 AM 42.8 °F 39.3 °F 26.6 °F 53% 29.89 in 10.0 mi NNE 5.8 mph - N/A   Overcast
11:35 AM 42.8 °F 37.0 °F 26.6 °F 53% 29.88 in 10.0 mi North 10.4 mph - N/A   Mostly Cloudy
11:55 AM 44.6 °F 41.4 °F 28.4 °F 53% 29.87 in 10.0 mi North 5.8 mph - N/A   Scattered Clouds
12:15 PM 44.6 °F - 28.4 °F 53% 29.87 in 10.0 mi Calm Calm - N/A   Clear
12:35 PM 44.6 °F 40.2 °F 28.4 °F 53% 29.87 in 10.0 mi NNW 8.1 mph - N/A   Scattered Clouds
12:55 PM 44.6 °F 40.7 °F 28.4 °F 53% 29.86 in 10.0 mi NNW 6.9 mph - N/A   Scattered Clouds
1:15 PM 44.6 °F 40.2 °F 28.4 °F 53% 29.86 in 10.0 mi North 8.1 mph - N/A   Scattered Clouds
1:35 PM 44.6 °F 40.2 °F 28.4 °F 53% 29.86 in 10.0 mi NNE 8.1 mph - N/A   Mostly Cloudy
1:55 PM 44.6 °F 39.7 °F 28.4 °F 53% 29.86 in 10.0 mi North 9.2 mph - N/A   Mostly Cloudy
2:15 PM 44.6 °F 39.7 °F 30.2 °F 57% 29.87 in 10.0 mi North 9.2 mph - N/A   Mostly Cloudy
2:35 PM 44.6 °F 41.4 °F 30.2 °F 57% 29.87 in 10.0 mi North 5.8 mph - N/A   Overcast
2:55 PM 46.4 °F 42.4 °F 30.2 °F 53% 29.87 in 10.0 mi North 8.1 mph 16.1 mph N/A   Overcast
3:15 PM 46.4 °F 41.9 °F 30.2 °F 53% 29.87 in 10.0 mi North 9.2 mph - N/A   Overcast
3:35 PM 44.6 °F 40.2 °F 30.2 °F 57% 29.87 in 10.0 mi North 8.1 mph - N/A   Mostly Cloudy
3:55 PM 44.6 °F 40.2 °F 30.2 °F 57% 29.87 in 10.0 mi NW 8.1 mph - N/A   Scattered Clouds
4:15 PM 46.4 °F 42.4 °F 30.2 °F 53% 29.87 in 10.0 mi North 8.1 mph - N/A   Mostly Cloudy
4:35 PM 44.6 °F 40.7 °F 30.2 °F 57% 29.87 in 10.0 mi NNW 6.9 mph - N/A   Overcast
4:55 PM 44.6 °F 41.4 °F 30.2 °F 57% 29.87 in 10.0 mi North 5.8 mph - N/A   Overcast
5:15 PM 42.8 °F 39.3 °F 30.2 °F 61% 29.88 in 10.0 mi NNE 5.8 mph - N/A   Overcast
5:35 PM 42.8 °F 40.1 °F 28.4 °F 57% 29.89 in 10.0 mi North 4.6 mph - N/A   Overcast
5:55 PM 42.8 °F 39.3 °F 28.4 °F 57% 29.90 in 10.0 mi North 5.8 mph - N/A   Overcast
6:15 PM 42.8 °F 38.0 °F 28.4 °F 57% 29.90 in 10.0 mi North 8.1 mph - N/A   Overcast
6:35 PM 42.8 °F 38.0 °F 28.4 °F 57% 29.90 in 10.0 mi North 8.1 mph - N/A   Overcast
6:55 PM 42.8 °F 38.0 °F 26.6 °F 53% 29.90 in 10.0 mi North 8.1 mph - N/A   Overcast
7:15 PM 42.8 °F 37.5 °F 26.6 °F 53% 29.90 in 10.0 mi North 9.2 mph - N/A   Overcast
7:35 PM 42.8 °F 39.3 °F 26.6 °F 53% 29.90 in 10.0 mi North 5.8 mph - N/A   Overcast
7:55 PM 42.8 °F 40.1 °F 26.6 °F 53% 29.90 in 10.0 mi North 4.6 mph - N/A   Overcast
8:15 PM 42.8 °F 40.1 °F 26.6 °F 53% 29.90 in 10.0 mi North 4.6 mph - N/A   Overcast
8:35 PM 42.8 °F 38.6 °F 26.6 °F 53% 29.91 in 10.0 mi North 6.9 mph - N/A   Overcast
8:55 PM 42.8 °F 38.6 °F 26.6 °F 53% 29.91 in 10.0 mi North 6.9 mph - N/A   Overcast
9:15 PM 41.0 °F 37.1 °F 26.6 °F 57% 29.91 in 10.0 mi North 5.8 mph - N/A   Mostly Cloudy
9:35 PM 41.0 °F 36.4 °F 26.6 °F 57% 29.91 in 10.0 mi North 6.9 mph - N/A   Scattered Clouds
9:55 PM 41.0 °F 36.4 °F 26.6 °F 57% 29.91 in 10.0 mi North 6.9 mph - N/A   Mostly Cloudy
10:15 PM 41.0 °F 38.0 °F 26.6 °F 57% 29.91 in 10.0 mi North 4.6 mph - N/A   Overcast
10:35 PM 41.0 °F 38.0 °F 26.6 °F 57% 29.91 in 10.0 mi North 4.6 mph - N/A   Overcast
10:55 PM 41.0 °F 37.1 °F 26.6 °F 57% 29.91 in 10.0 mi North 5.8 mph - N/A   Overcast
11:15 PM 42.8 °F 38.6 °F 24.8 °F 49% 29.91 in 10.0 mi North 6.9 mph - N/A   Mostly Cloudy
11:35 PM 42.8 °F 38.6 °F 21.2 °F 42% 29.91 in 10.0 mi North 6.9 mph - N/A   Mostly Cloudy
11:55 PM 42.8 °F 39.3 °F 21.2 °F 42% 29.91 in 10.0 mi NNW 5.8 mph - N/A   Overcast